Regional Weather Roundup
Issued by NWS

Home | Current Version | Previous Version | Graphics & Text | Print | Product List | Glossary Off
Versions: 1 2 3 4 5 6 7 8 9 10 11 12 13 14 15 16 17 18 19 20 21 22 23 24 25 26 27 28 29 30 31 32 33 34 35 36 37 38 39 40 41 42 43 44 45 46 47 48 49 50

000
ASUS43 KLOT 290208
RWRIL

ILLINOIS REGIONAL WEATHER ROUNDUP
NATIONAL WEATHER SERVICE CHICAGO/ROMEOVILLE IL
900 PM CDT SUN AUG 28 2016

NOTE: "FAIR" INDICATES FEW OR NO CLOUDS BELOW 12,000 FEET WITH NO
SIGNIFICANT WEATHER AND/OR OBSTRUCTIONS TO VISIBILITY.

* THESE STATIONS ARE NOT UNDER NWS QUALITY CONTROL. THEY ALSO MAY NOT
  REPORT WEATHER SUCH AS PRECIPITATION OR FOG.

ILZ001-002-007-009-015-016-024-290300-
NORTHWEST ILLINOIS

CITY           SKY/WX    TMP DP  RH WIND       PRES   REMARKS
MOLINE         CLOUDY    73  69  87 CALM      30.15F
STERLING*      MOCLDY    71  71 100 NE3       30.17S FOG
SAVANNA*       MOCLDY    72  70  95 E5        30.16S
$$

ILZ003-004-008-010-011-017-018-290300-
NORTH CENTRAL ILLINOIS

CITY           SKY/WX    TMP DP  RH WIND       PRES   REMARKS
ROCKFORD       CLOUDY    75  67  76 CALM      30.20R
FREEPORT*      CLOUDY    70  68  93 NW3       30.21R
ROCHELLE*      CLOUDY    69  68  98 CALM      30.20R
DE KALB*       CLOUDY    71  69  94 CALM      30.20R
$$

ILZ005-006-012>014-019>023-290300-
NORTHEAST ILLINOIS

CITY           SKY/WX    TMP DP  RH WIND       PRES   REMARKS
CHICAGO-OHARE  MOCLDY    73  69  87 NE10      30.19R
CHICAGO-MIDWAY MOCLDY    76  69  79 E9        30.18R
AURORA         CLOUDY    72  69  90 CALM      30.18R
LANSING*       CLOUDY    73  73 100 E5        30.19R
JOLIET*        CLOUDY    73  72  95 CALM      30.18R
WAUKEGAN       CLOUDY    70  68  93 CALM      30.20R
DUPAGE AIRPORT MOCLDY    73  67  81 NE5       30.19R
KANKAKEE*      CLOUDY    72  70  95 NE3       30.20R
WHEELING       CLOUDY    73  69  87 NE3       30.21R
MORRIS*        PTCLDY    70  68  96 CALM      30.18R
ROMEOVILLE*    CLOUDY    71  71  99 E3        30.18S
$$

LMZ740>746-290300-
SOUTHERN LAKE MICHIGAN

STATION/POSITION SKY/WX   TEMP    WIND        PRES    VSBY  WAVE
                          AIR SEA DIR/SP/G                  HT/PER
                          (F)     (DEG/KT/KT) (MB)    (MI)  (FT/S)
SOUTHERN BUOY              73 75   60/  6/  8 1022.2R         1/ 3
WILMETTE HARBOR            74 73   90/  8/ 10   N/A           1/ 2
HARRISON CRIB              74      50/  7/  8   N/A
BURNHAM HARBOR             72      40/  7       N/A
CALUMET HARBOR             73                 1021.3S
BURNS HARBOR               74      60/ 11/ 12 1022.0S
MICHIGAN CITY              74      20/ 13/ 14   N/A
MICHIGAN CITY 6N           75 77   50/ 14/ 16   N/A           2/ 3
ST. JOSEPH                 74 74   30/ 10/ 12 1022.1R         2/ 3
$$

ILZ025>027-034>036-040-047-049-050-058-095>099-290300-
WEST-CENTRAL ILLINOIS

CITY           SKY/WX    TMP DP  RH WIND       PRES   REMARKS
QUINCY         CLEAR     78  75  90 E6        30.14R HX  81
GALESBURG*     PTCLDY    69  68  96 CALM      30.17R
MACOMB*        CLEAR     71  70  96 CALM      30.19R
JACKSONVILLE*  CLEAR     75  71  87 E7        30.15R
PITTSFIELD*    CLEAR     78  75  92 NE3       30.15R HX  80
$$

ILZ028>032-037-038-041>044-048-051>054-059>061-290300-
CENTRAL ILLINOIS

CITY           SKY/WX    TMP DP  RH WIND       PRES   REMARKS
PONTIAC        CLEAR     71  71  99 E6        30.19R
BLOOMINGTON    CLEAR     71  68  90 NE10      30.19R
DECATUR        CLEAR     78  73  84 CALM      30.16R HX  81
PEORIA         PTCLDY    72  71  97 CALM      30.16R
LACON*         PTCLDY    70  69  97 E7        30.17R
LINCOLN*       CLEAR     73  71  92 CALM      30.15R
SPRINGFIELD    CLEAR     76  71  85 NE3       30.16R
TAYLORVILLE    CLEAR     78  74  87 CALM      30.15R HX  81
$$

ILZ033-039-045-046-055>057-062-063-290300-
EAST-CENTRAL ILLINOIS

CITY           SKY/WX    TMP DP  RH WIND       PRES   REMARKS
CHAMPAIGN      CLEAR     75  69  81 NE5       30.16R
RANTOUL*       CLEAR     78  74  90 NE3       30.16R HX  80
MATTOON        CLEAR     79  72  79 CALM      30.15R HX  82
PARIS*         CLEAR     75  75  99 CALM      30.16R
$$

ILZ079-100>102-290300-
SOUTHWEST ILLINOIS

CITY           SKY/WX    TMP DP  RH WIND       PRES   REMARKS
BELLEVILLE     CLEAR     82  73  76 E3        30.11R HX  87
CAHOKIA*       CLEAR     82  72  71 SE3       30.11R HX  87
SPARTA*        CLEAR     79  75  89 E3        30.13R HX  82
$$

ILZ064>066-069>071-074>076-080>082-084>086-088>090-092>094-290300-
SOUTH-CENTRAL ILLINOIS

CITY           SKY/WX    TMP DP  RH WIND       PRES   REMARKS
CARBONDALE     CLEAR     77  75  93 CALM      30.12R
CAIRO*         CLEAR     79  76  89 E3        30.10R HX  83
EFFINGHAM*     CLEAR     78  78 100 E3        30.16S HX  80
MARION         CLEAR     79  77  94 CALM      30.13R HX  83
MT. VERNON     CLEAR     79  72  78 NE3       30.14R HX  82
CENTRALIA*     CLEAR     80  77  91 E3        30.13R HX  85
SALEM*         CLEAR     81  74  77 CALM      30.14R HX  87
METROPOLIS*    CLEAR     77  76  96 CALM      30.11R
$$

ILZ067-068-072-073-078-083-087-091-290300-
SOUTHEAST ILLINOIS

CITY           SKY/WX    TMP DP  RH WIND       PRES   REMARKS
LAWRENCEVILLE  TSTM      77  73  87 NW5       30.14R
FLORA*         MOCLDY    78  69  73 NE3       30.15R HX  80
FAIRFIELD*     CLEAR     78  73  85 CALM      30.12S HX  81
HARRISBURG*    CLEAR     80  77  91 NE3       30.12R HX  85
ROBINSON*      CLOUDY    76  70  83 SW7       30.16R THUNDER
CARMI*         CLEAR     78  78  99 CALM      30.12R HX  80
$$

ABBREVIATIONS USED IN REMARKS
   TC - TEMPERATURE IN CELSIUS
  WCI - WIND CHILL INDEX
   HX - HEAT INDEX
  VSB - VISIBILITY
$$





USA.gov is the U.S. government's official web portal to all federal, state and local government web resources and services.